Theta_e
307 307 307 306 305 303 301 298 297 309 310 299 305 297 300 299 299 301 301 300 299 296 297 296 295 295 298 301 300 296 297 292 288 292 298 297 294 292 291 285 286 289 289 289
307 306 306 306 305 304 297 294 299 310 308 293 293 297 298 299 297 297 297 296 297 297 293 289 295 296 300 300 299 295 293 287 281 284 288 292 290 292 291 290 294 286 286 287
306 306 306 306 305 304 299 296 294 302 302 301 296 294 295 296 299 298 299 296 296 293 292 294 292 294 299 299 298 305 298 288 285 279 284 288 286 290 291 287 280 284 286 287
306 306 306 306 305 304 300 300 295 297 291 292 295 295 295 294 294 299 299 295 295 292 288 291 291 294 294 297 300 296 291 284 287 288 291 291 290 289 290 287 287 283 286 287
305 305 306 306 305 304 302 295 293 296 294 297 297 296 294 295 296 295 293 291 294 293 288 289 288 290 289 290 293 290 291 283 287 285 290 290 287 290 290 289 289 290 290 290
304 304 306 306 305 303 298 300 301 295 294 294 293 294 297 296 296 297 297 295 292 291 293 294 293 292 292 292 289 287 286 284 281 278 288 288 282 288 289 290 292 291 286 291
304 304 306 306 306 304 299 298 298 293 289 292 293 295 296 295 295 292 295 294 291 295 299 297 294 293 293 293 292 292 287 285 284 277 284 271 287 295 295 292 293 293 293 295
304 304 304 305 306 305 299 300 299 293 288 292 293 293 294 295 295 293 294 296 298 298 294 287 285 286 288 291 293 292 292 287 281 279 278 285 289 293 292 289 288 295 293 294
304 303 303 303 305 305 301 299 303 296 289 289 294 292 294 290 290 292 296 298 299 296 290 286 279 278 284 285 289 296 295 294 285 285 279 276 286 295 297 295 281 295 297 295
303 303 303 304 304 305 302 299 304 296 289 293 293 289 289 294 291 288 292 294 294 295 286 282 280 282 290 283 283 284 285 286 282 280 281 284 293 296 297 282 282 295 295 295
302 303 303 303 303 304 302 298 303 297 291 292 294 296 291 292 292 287 292 290 292 289 285 286 285 282 285 283 286 284 282 279 279 281 277 276 296 295 287 293 295 296 295 295
302 302 302 303 302 302 302 296 302 303 295 292 297 297 297 296 296 292 292 290 291 292 286 286 286 283 284 283 278 289 281 287 284 285 282 292 297 293 297 296 293 294 295 295
302 302 302 302 302 302 300 296 297 297 293 292 293 293 299 301 300 300 289 291 295 294 296 289 286 281 285 280 282 285 288 291 286 285 289 292 294 296 297 296 295 296 298 297
302 301 301 302 303 303 303 296 299 299 295 286 289 299 295 299 301 301 299 296 297 296 294 288 285 281 288 283 284 284 287 289 287 288 291 294 294 296 296 297 299 298 299 298
301 302 302 302 302 302 301 299 300 301 294 286 288 294 297 299 298 299 299 297 294 291 290 286 284 287 286 287 287 285 289 289 287 286 293 291 292 296 298 298 297 298 297 297
302 301 301 301 301 301 298 294 299 302 301 291 284 293 293 297 299 297 297 296 294 294 290 287 288 292 289 281 281 289 291 295 296 291 295 294 296 298 300 298 298 299 298 296
300 300 301 301 301 298 292 291 297 301 301 291 285 285 295 298 299 297 295 297 296 293 291 288 288 290 291 285 281 289 293 296 296 297 297 295 297 296 299 297 298 299 298 296
300 300 300 301 301 300 294 297 301 299 294 292 284 284 290 299 293 291 298 293 294 292 290 290 289 291 290 283 289 294 296 296 297 299 299 297 298 296 295 296 296 295 294 294
300 301 301 298 296 292 295 302 303 300 294 287 286 283 284 297 294 296 295 297 289 294 289 289 291 289 284 287 290 294 297 295 296 298 298 296 294 294 295 295 294 293 293 292
301 298 293 289 298 303 300 295 292 292 291 291 284 289 284 292 290 291 292 294 290 287 289 293 288 285 292 294 296 298 298 299 300 292 292 294 293 293 294 294 294 293 293 291
296 294 293 300 303 295 293 288 285 287 283 287 287 287 285 291 285 287 293 289 289 285 288 287 286 285 293 297 298 299 300 297 296 296 295 295 295 295 294 294 294 294 293 290
296 295 298 296 292 290 286 284 287 285 283 289 288 290 289 291 296 290 291 288 288 283 293 287 284 291 297 297 299 298 296 297 296 297 296 296 297 297 296 294 293 293 294 292
297 294 289 290 288 280 281 279 283 285 287 292 293 290 293 293 294 290 289 284 283 292 287 286 290 294 296 298 298 297 297 298 297 296 297 297 297 299 296 295 295 296 294 294
289 286 279 283 282 284 286 286 288 292 292 292 293 292 292 293 290 291 285 289 291 285 282 286 291 294 297 299 299 297 296 297 297 296 297 296 296 296 298 297 296 295 292 293
287 288 280 283 287 290 291 294 292 294 295 293 291 292 291 290 289 290 289 286 284 286 286 290 294 297 298 300 298 298 297 297 297 296 297 296 296 296 297 297 297 296 294 293
288 287 284 287 286 288 290 291 292 295 295 295 294 290 288 287 288 286 285 284 283 287 292 295 297 297 299 300 300 300 299 298 298 298 298 298 296 296 296 296 296 297 296 294
287 285 290 288 288 288 289 292 291 296 292 288 290 285 286 291 287 286 289 287 290 293 294 296 298 298 298 301 302 301 301 300 298 299 298 298 298 297 296 295 295 295 296 296
Wind_Speed
21 23 25 27 29 32 10 7 4 3 4 1 4 2 3 1 7 8 5 4 8 6 8 6 6 6 7 12 9 6 4 2 4 8 9 10 12 10 4 1 7 2 3 13
20 22 24 26 26 23 8 7 5 4 5 4 5 7 6 5 3 4 4 3 8 8 6 4 5 7 11 10 6 4 5 4 5 9 7 6 4 8 9 7 2 5 4 10
19 21 23 26 27 25 6 4 5 5 4 4 5 7 6 7 6 3 5 5 5 6 5 4 4 7 8 13 6 7 6 4 6 6 8 11 17 19 14 5 0 6 11 17
17 19 22 25 29 30 3 3 3 4 5 8 9 6 8 9 8 6 4 2 6 6 4 7 7 9 10 13 11 7 3 5 7 9 12 16 17 16 16 17 15 10 20 17
17 18 19 22 27 35 1 4 5 6 11 10 8 5 5 9 7 8 6 5 9 6 4 5 6 6 5 4 7 7 7 5 7 6 11 16 21 12 15 16 16 9 10 15
16 17 17 18 22 20 5 5 6 3 7 7 8 7 1 5 7 5 4 8 7 7 7 6 6 5 7 8 6 6 5 2 3 5 11 14 12 9 12 8 6 4 2 6
12 14 16 16 16 13 4 4 5 3 6 9 12 15 14 11 4 4 8 7 7 6 7 6 6 9 14 14 17 11 7 3 2 4 5 3 7 6 8 5 8 6 10 6
11 13 14 15 15 15 4 5 4 4 6 10 14 18 15 13 9 9 8 10 4 5 4 3 6 5 7 12 23 15 16 9 2 1 4 11 10 3 4 6 9 11 3 7
10 12 13 13 13 14 6 6 3 3 4 7 14 16 9 6 7 7 5 6 6 4 2 2 4 4 9 7 7 10 10 6 5 2 4 3 3 7 4 1 5 13 10 12
9 10 11 13 13 13 7 5 6 3 5 8 10 6 7 7 6 5 8 7 5 5 1 3 5 7 7 2 5 8 3 3 7 4 5 6 7 6 3 1 6 11 9 10
10 10 10 11 11 12 6 6 6 2 4 13 6 8 8 9 5 4 4 5 6 3 2 2 3 3 3 3 5 7 7 4 3 5 3 3 4 4 2 4 8 7 7 11
9 9 10 10 10 10 8 4 4 3 3 8 17 22 22 19 20 5 3 5 5 3 3 4 3 3 3 5 5 6 4 2 5 7 5 8 3 4 3 6 4 5 6 7
9 8 9 10 10 9 5 4 5 4 4 8 6 7 13 14 15 11 4 2 3 4 2 2 3 2 5 3 5 7 8 7 4 6 5 7 7 5 7 4 5 8 11 9
6 8 9 10 9 10 8 5 5 2 4 5 7 12 13 16 8 11 9 6 3 2 3 2 0 0 2 3 6 9 6 10 7 10 6 14 7 9 7 12 11 10 12 11
8 9 10 10 9 9 7 7 6 5 2 4 8 18 13 11 9 7 7 7 3 2 2 1 2 2 2 4 6 8 4 2 2 4 9 8 12 11 14 14 13 13 12 12
8 7 9 8 8 9 4 0 3 5 4 4 5 8 8 8 4 6 11 6 3 2 2 0 2 4 1 3 4 6 6 3 4 6 7 7 9 15 13 11 13 10 8 7
8 8 9 10 9 4 4 3 2 5 0 2 5 5 4 7 2 4 3 6 3 3 3 2 3 3 3 3 4 8 11 7 8 8 8 11 6 12 12 7 8 7 5 3
9 10 11 11 10 9 6 6 12 7 3 3 4 6 3 6 3 1 0 4 3 2 3 2 2 1 3 6 9 8 7 8 9 9 9 10 8 7 7 5 6 8 7 7
10 12 15 8 5 3 2 6 5 4 3 3 3 4 3 4 3 1 3 1 3 4 3 4 3 2 6 8 7 8 9 8 12 12 8 6 7 8 8 6 7 7 7 7
11 7 3 3 2 5 4 2 3 2 2 3 5 4 7 3 5 3 4 3 3 3 5 3 3 4 12 10 9 12 11 11 10 5 7 5 7 8 7 9 6 7 6 8
3 3 1 2 8 3 3 3 4 3 4 5 5 8 9 4 5 2 3 3 1 3 3 3 3 3 4 6 8 9 2 6 7 7 6 7 7 5 6 6 6 6 5 5
4 4 6 4 4 4 4 4 5 6 5 5 4 4 6 4 2 1 1 1 1 3 5 2 3 4 2 2 5 6 6 7 7 6 7 8 5 5 4 3 4 5 4 6
5 4 4 3 4 2 5 5 3 1 5 2 5 4 2 2 2 1 2 3 4 2 2 3 2 2 4 6 4 5 6 6 5 6 7 7 7 5 4 4 1 4 5 5
3 4 4 4 5 4 2 3 2 2 4 4 3 2 2 2 3 2 2 4 1 4 3 3 2 4 4 5 4 4 5 5 5 5 7 6 6 5 3 4 2 4 3 6
3 4 5 6 4 3 6 2 4 4 5 5 3 4 2 2 1 2 3 3 3 3 2 3 3 3 3 4 4 4 5 5 5 3 6 6 5 4 3 4 4 4 2 5
4 6 6 6 4 2 6 2 4 3 4 5 3 2 2 3 3 3 4 3 2 1 3 3 4 1 1 3 2 3 4 3 5 3 4 5 6 5 3 5 5 2 2 3
4 5 3 7 7 3 5 5 6 3 3 2 1 5 3 4 4 1 2 1 4 5 3 2 2 1 4 3 3 4 2 2 3 4 3 4 3 6 5 5 4 6 4 4
Wind_Direction
344 346 346 348 353 350 1 331 306 315 11 3 215 117 8 14 38 25 22 338 323 357 1 357 340 331 304 14 38 30 35 315 316 301 305 310 299 294 304 52 306 277 220 265
343 346 347 347 353 4 322 312 265 282 39 8 350 7 357 283 96 42 33 345 24 360 333 339 293 347 323 4 57 50 23 359 347 332 336 351 355 339 344 316 206 198 240 275
345 346 348 347 345 345 330 297 317 342 355 70 7 1 306 359 127 111 73 343 305 281 291 296 299 326 330 357 78 149 125 181 189 210 263 294 292 303 307 288 22 288 267 301
347 347 349 348 343 338 309 236 345 7 322 332 324 326 311 305 298 95 63 284 320 359 355 345 318 330 337 337 326 352 17 227 245 255 266 277 283 299 307 300 289 276 296 294
345 348 351 353 351 337 154 8 356 350 297 299 305 284 265 284 6 35 3 326 302 338 343 288 314 2 356 284 336 340 342 298 319 292 289 285 289 301 291 286 290 321 341 317
343 344 350 356 2 353 346 343 335 305 292 302 298 307 351 348 13 324 285 352 355 333 322 26 347 306 277 241 252 278 281 273 341 272 276 292 295 262 273 289 353 19 326 267
342 345 345 350 0 13 320 287 304 300 288 313 326 328 345 334 335 334 331 323 290 267 40 8 320 269 259 253 249 210 233 222 250 263 322 261 247 342 38 338 293 10 321 318
335 340 346 345 348 356 333 296 342 319 308 320 309 350 336 338 348 313 278 279 91 66 62 347 299 281 264 253 234 226 206 215 281 205 207 291 306 38 35 38 303 292 15 340
331 336 339 341 345 348 336 302 324 313 305 222 355 315 315 317 354 320 313 9 117 103 68 252 249 275 275 314 344 81 71 132 124 218 267 251 309 75 90 260 265 10 352 314
324 329 332 339 340 341 339 287 345 320 286 270 350 317 321 314 324 288 313 348 319 103 204 258 244 262 312 349 339 336 359 285 202 222 228 247 64 16 302 286 271 328 342 322
317 317 325 328 334 346 345 303 310 2 290 292 261 352 324 324 281 246 338 345 1 325 348 296 325 10 329 337 334 302 289 267 312 7 343 300 240 48 31 264 276 263 269 283
304 310 314 324 327 329 339 277 326 350 250 271 305 288 269 247 251 296 305 308 320 296 350 354 358 343 301 297 288 303 359 78 182 195 228 257 81 206 229 225 264 274 267 290
294 299 309 313 315 313 303 292 294 320 283 284 265 275 323 219 220 218 203 254 288 39 305 300 337 323 15 322 301 345 331 330 325 321 323 351 330 357 324 354 286 285 298 278
301 298 299 301 312 307 294 285 288 180 276 284 292 343 327 311 281 187 182 227 336 351 326 50 327 316 341 289 294 298 274 308 307 302 323 340 321 316 309 305 302 296 296 285
290 291 293 295 312 308 296 265 267 246 204 299 303 294 282 265 240 220 174 160 170 228 252 177 249 274 293 279 270 263 234 284 251 280 297 268 291 299 299 297 299 300 289 295
288 298 304 307 313 325 300 109 13 1 106 293 303 321 270 280 181 191 173 156 161 199 95 251 238 223 149 269 269 255 342 320 255 258 275 286 296 302 302 305 303 307 295 292
287 293 301 305 305 296 264 326 269 324 335 265 288 286 282 238 173 160 177 151 137 145 163 229 233 200 119 275 245 270 290 314 303 312 323 315 301 294 299 351 349 346 345 349
285 295 300 301 300 282 261 246 228 209 259 247 271 275 286 18 323 179 250 135 119 156 203 237 238 111 165 251 249 281 325 312 305 302 307 287 304 2 357 354 342 344 345 4
290 297 296 285 221 223 285 105 126 173 249 271 262 278 325 356 7 331 343 99 192 204 184 211 177 185 227 232 265 291 303 286 284 287 282 327 358 339 331 344 352 355 356 1
302 283 214 243 232 149 159 173 171 150 217 247 251 285 268 233 242 227 158 194 224 189 216 100 198 246 244 253 265 268 272 269 293 349 350 3 345 330 22 24 25 8 2 341
217 249 269 234 152 227 206 202 226 148 232 219 237 226 240 277 252 257 190 182 155 238 181 205 201 252 251 232 233 248 309 30 20 24 13 333 313 60 43 16 10 353 341 324
307 293 277 238 223 214 227 204 198 194 242 173 221 215 185 244 108 164 356 291 263 254 134 207 187 248 217 348 319 58 49 40 31 26 337 320 58 84 63 28 4 335 315 319
263 199 255 223 236 253 227 231 201 319 333 312 337 311 187 229 153 244 124 232 236 73 218 186 92 89 41 342 51 43 54 45 28 7 333 349 66 109 100 66 25 358 358 320
251 243 245 236 208 236 305 329 251 189 221 257 324 330 285 206 189 189 238 236 306 273 114 75 141 46 17 332 51 42 55 34 14 17 339 10 63 47 83 164 179 67 352 318
255 251 241 229 271 156 296 322 288 250 210 221 234 213 160 279 228 276 238 229 261 44 83 121 111 54 14 2 51 25 64 23 350 29 357 18 35 33 70 39 104 143 218 335
246 239 270 296 279 331 237 287 296 292 284 270 233 302 217 215 182 209 216 289 87 144 102 132 93 38 8 353 72 55 82 46 347 8 24 20 24 10 33 71 4 138 107 49
236 240 255 302 290 313 338 67 289 257 285 301 340 10 341 321 260 162 148 194 139 113 110 105 144 302 315 268 319 105 69 115 11 348 70 33 59 13 19 74 5 13 42 103